Time,TemperatureF,DewpointF,PressureIn,WindDirection,WindDirectionDegrees,WindSpeedMPH,WindSpeedGustMPH,Humidity,HourlyPrecipIn,Conditions,Clouds,dailyrainin,SoftwareType,DateUTC
2013-02-03 00:03:00,25.0,10.0,30.05,WSW,242,1.0,6.0,53,0.00,,,0.00,,2013-02-03 05:03:00,
2013-02-03 00:12:00,25.0,10.0,30.05,WSW,242,1.0,6.0,53,0.00,,,0.00,,2013-02-03 05:12:00,
2013-02-03 00:22:00,25.0,11.0,30.05,NW,306,1.0,3.0,54,0.00,,,0.00,,2013-02-03 05:22:00,
2013-02-03 00:32:00,25.0,11.0,30.05,SW,234,1.0,3.0,54,0.00,,,0.00,,2013-02-03 05:32:00,
2013-02-03 00:42:00,25.0,11.0,30.05,SW,234,1.0,3.0,54,0.00,,,0.00,,2013-02-03 05:42:00,
2013-02-03 00:52:00,24.0,11.0,30.04,WSW,251,0.0,3.0,56,0.00,,,0.00,,2013-02-03 05:52:00,
2013-02-03 01:02:00,24.0,11.0,30.04,WSW,254,1.0,2.0,58,0.00,,,0.00,,2013-02-03 06:02:00,
2013-02-03 01:11:00,24.0,11.0,30.04,WSW,254,1.0,2.0,58,0.00,,,0.00,,2013-02-03 06:11:00,
2013-02-03 01:21:00,24.0,12.0,30.03,SSE,148,0.0,3.0,60,0.00,,,0.00,,2013-02-03 06:21:00,
2013-02-03 01:32:00,24.0,13.0,30.03,West,272,0.0,4.0,61,0.00,,,0.00,,2013-02-03 06:32:00,
2013-02-03 01:42:00,24.0,13.0,30.03,West,272,0.0,4.0,61,0.00,,,0.00,,2013-02-03 06:42:00,
2013-02-03 01:52:00,23.0,13.0,30.03,WSW,256,0.0,2.0,65,0.00,,,0.00,,2013-02-03 06:52:00,
2013-02-03 02:01:00,23.0,14.0,30.03,WSW,256,0.0,2.0,67,0.00,,,0.00,,2013-02-03 07:01:00,
2013-02-03 02:11:00,23.0,14.0,30.03,WSW,256,0.0,2.0,67,0.00,,,0.00,,2013-02-03 07:11:00,
2013-02-03 02:21:00,23.0,15.0,30.03,WSW,256,0.0,1.0,70,0.00,,,0.00,,2013-02-03 07:21:00,
2013-02-03 02:31:00,23.0,15.0,30.02,WSW,246,0.0,1.0,71,0.00,,,0.00,,2013-02-03 07:31:00,
2013-02-03 02:42:00,23.0,15.0,30.02,WSW,246,0.0,1.0,71,0.00,,,0.00,,2013-02-03 07:42:00,
2013-02-03 02:52:00,22.0,15.0,30.01,WSW,246,0.0,1.0,73,0.00,,,0.00,,2013-02-03 07:52:00,
2013-02-03 03:01:00,22.0,15.0,30.00,WSW,246,0.0,1.0,74,0.00,,,0.00,,2013-02-03 08:01:00,
2013-02-03 03:11:00,22.0,15.0,30.00,WSW,246,0.0,1.0,74,0.00,,,0.00,,2013-02-03 08:11:00,
2013-02-03 03:22:00,22.0,15.0,29.98,WSW,246,0.0,1.0,75,0.00,,,0.00,,2013-02-03 08:22:00,
2013-02-03 03:32:00,22.0,16.0,29.98,WSW,246,0.0,0.0,76,0.00,,,0.00,,2013-02-03 08:32:00,
2013-02-03 03:41:00,22.0,16.0,29.98,WSW,246,0.0,0.0,76,0.00,,,0.00,,2013-02-03 08:41:00,
2013-02-03 03:52:00,22.0,16.0,29.98,WSW,246,0.0,2.0,77,0.00,,,0.00,,2013-02-03 08:52:00,
2013-02-03 04:02:00,22.0,16.0,29.98,WSW,246,0.0,2.0,77,0.00,,,0.00,,2013-02-03 09:02:00,
2013-02-03 04:11:00,22.0,16.0,29.98,WSW,246,0.0,2.0,77,0.00,,,0.00,,2013-02-03 09:11:00,
2013-02-03 04:21:00,22.0,16.0,29.99,WSW,245,0.0,0.0,77,0.00,,,0.00,,2013-02-03 09:21:00,
2013-02-03 04:31:00,22.0,16.0,29.99,WSW,245,0.0,0.0,78,0.00,,,0.00,,2013-02-03 09:31:00,
2013-02-03 04:42:00,22.0,16.0,29.99,WSW,245,0.0,0.0,78,0.00,,,0.00,,2013-02-03 09:42:00,
2013-02-03 04:52:00,22.0,16.0,29.99,WSW,246,0.0,0.0,79,0.00,,,0.00,,2013-02-03 09:52:00,
2013-02-03 05:01:00,21.0,16.0,29.98,WSW,245,0.0,0.0,79,0.00,,,0.00,,2013-02-03 10:01:00,
2013-02-03 05:11:00,21.0,16.0,29.98,WSW,245,0.0,0.0,79,0.00,,,0.00,,2013-02-03 10:11:00,
2013-02-03 05:21:00,21.0,16.0,29.98,WSW,245,0.0,0.0,79,0.00,,,0.00,,2013-02-03 10:21:00,
2013-02-03 05:31:00,21.0,16.0,29.98,WSW,245,0.0,0.0,79,0.00,,,0.00,,2013-02-03 10:31:00,
2013-02-03 05:42:00,21.0,16.0,29.98,WSW,245,0.0,0.0,79,0.00,,,0.00,,2013-02-03 10:42:00,
2013-02-03 05:53:00,21.0,16.0,29.98,WSW,245,0.0,0.0,80,0.00,,,0.00,,2013-02-03 10:53:00,
2013-02-03 06:02:00,21.0,16.0,29.98,WSW,246,0.0,0.0,80,0.00,,,0.00,,2013-02-03 11:02:00,
2013-02-03 06:11:00,21.0,16.0,29.98,WSW,246,0.0,0.0,80,0.00,,,0.00,,2013-02-03 11:11:00,
2013-02-03 06:22:00,21.0,16.0,29.97,WSW,246,0.0,0.0,80,0.00,,,0.00,,2013-02-03 11:22:00,
2013-02-03 06:32:00,21.0,16.0,29.96,WSW,246,0.0,0.0,80,0.00,,,0.00,,2013-02-03 11:32:00,
2013-02-03 06:42:00,21.0,16.0,29.96,WSW,246,0.0,0.0,80,0.00,,,0.00,,2013-02-03 11:42:00,
2013-02-03 06:52:00,21.0,16.0,29.96,WSW,246,0.0,0.0,81,0.00,,,0.00,,2013-02-03 11:52:00,
2013-02-03 07:02:00,20.0,15.0,29.95,WSW,246,0.0,0.0,81,0.00,,,0.00,,2013-02-03 12:02:00,
2013-02-03 07:12:00,20.0,15.0,29.95,WSW,246,0.0,0.0,81,0.00,,,0.00,,2013-02-03 12:12:00,
2013-02-03 07:22:00,20.0,15.0,29.95,WSW,245,0.0,0.0,82,0.00,,,0.00,,2013-02-03 12:22:00,
2013-02-03 07:32:00,20.0,16.0,29.95,WSW,246,0.0,0.0,83,0.00,,,0.00,,2013-02-03 12:32:00,
2013-02-03 07:42:00,20.0,16.0,29.95,WSW,246,0.0,0.0,83,0.00,,,0.00,,2013-02-03 12:42:00,
2013-02-03 07:53:00,19.0,15.0,29.95,WSW,246,0.0,0.0,83,0.00,,,0.00,,2013-02-03 12:53:00,
2013-02-03 08:03:00,19.0,15.0,29.96,WSW,246,0.0,0.0,83,0.00,,,0.00,,2013-02-03 13:03:00,
2013-02-03 08:11:00,19.0,15.0,29.97,WSW,245,0.0,0.0,84,0.00,,,0.00,,2013-02-03 13:11:00,
2013-02-03 08:22:00,19.0,15.0,29.97,WSW,245,0.0,0.0,84,0.00,,,0.00,,2013-02-03 13:22:00,
2013-02-03 08:32:00,20.0,16.0,29.97,WSW,245,0.0,0.0,84,0.00,,,0.00,,2013-02-03 13:32:00,
2013-02-03 08:42:00,20.0,16.0,29.97,WSW,245,0.0,0.0,84,0.00,,,0.00,,2013-02-03 13:42:00,
2013-02-03 08:52:00,20.0,16.0,29.97,WSW,246,0.0,0.0,84,0.00,,,0.00,,2013-02-03 13:52:00,
2013-02-03 09:02:00,21.0,17.0,29.96,WSW,245,0.0,0.0,84,0.00,,,0.00,,2013-02-03 14:02:00,
2013-02-03 09:11:00,21.0,17.0,29.96,WSW,245,0.0,0.0,84,0.00,,,0.00,,2013-02-03 14:11:00,
2013-02-03 09:21:00,21.0,17.0,29.96,WSW,245,0.0,0.0,84,0.00,,,0.00,,2013-02-03 14:21:00,
2013-02-03 09:32:00,22.0,18.0,29.95,WNW,297,0.0,0.0,83,0.00,,,0.00,,2013-02-03 14:32:00,
2013-02-03 09:42:00,22.0,18.0,29.95,WNW,297,0.0,0.0,83,0.00,,,0.00,,2013-02-03 14:42:00,
2013-02-03 09:52:00,22.0,17.0,29.95,WSW,244,0.0,2.0,82,0.00,,,0.00,,2013-02-03 14:52:00,
2013-02-03 10:03:00,22.0,17.0,29.94,WSW,253,0.0,3.0,81,0.00,,,0.00,,2013-02-03 15:03:00,
2013-02-03 10:11:00,23.0,18.0,29.94,WSW,248,0.0,2.0,81,0.00,,,0.00,,2013-02-03 15:11:00,
2013-02-03 10:22:00,23.0,18.0,29.94,WSW,248,0.0,2.0,81,0.00,,,0.00,,2013-02-03 15:22:00,
2013-02-03 10:33:00,23.0,17.0,29.93,NW,304,0.0,2.0,78,0.00,,,0.00,,2013-02-03 15:33:00,
2013-02-03 10:42:00,23.0,17.0,29.93,NW,304,0.0,2.0,78,0.00,,,0.00,,2013-02-03 15:42:00,
2013-02-03 10:51:00,24.0,18.0,29.92,NNW,345,0.0,1.0,78,0.00,,,0.00,,2013-02-03 15:51:00,
2013-02-03 11:03:00,24.0,18.0,29.91,NNW,344,0.0,2.0,77,0.00,,,0.00,,2013-02-03 16:03:00,
2013-02-03 11:11:00,24.0,18.0,29.91,NNW,344,0.0,2.0,77,0.00,,,0.00,,2013-02-03 16:11:00,
2013-02-03 11:22:00,24.0,18.0,29.91,NW,317,0.0,2.0,77,0.00,,,0.00,,2013-02-03 16:22:00,
2013-02-03 11:33:00,24.0,18.0,29.90,NE,53,0.0,1.0,76,0.00,,,0.00,,2013-02-03 16:33:00,
2013-02-03 11:42:00,24.0,18.0,29.90,NE,53,0.0,1.0,76,0.00,,,0.00,,2013-02-03 16:42:00,
2013-02-03 11:52:00,24.0,17.0,29.89,West,278,0.0,1.0,75,0.00,,,0.00,,2013-02-03 16:52:00,
2013-02-03 12:02:00,24.0,17.0,29.88,West,279,0.0,2.0,75,0.00,,,0.00,,2013-02-03 17:02:00,
2013-02-03 12:11:00,24.0,17.0,29.88,West,279,0.0,2.0,75,0.00,,,0.00,,2013-02-03 17:11:00,
2013-02-03 12:22:00,24.0,17.0,29.86,NNW,334,0.0,3.0,75,0.00,,,0.00,,2013-02-03 17:22:00,
2013-02-03 12:32:00,24.0,18.0,29.85,NNW,331,0.0,2.0,76,0.00,,,0.00,,2013-02-03 17:32:00,
2013-02-03 12:42:00,24.0,18.0,29.85,NNW,331,0.0,2.0,76,0.00,,,0.00,,2013-02-03 17:42:00,
2013-02-03 12:52:00,24.0,18.0,29.85,NNW,331,0.0,2.0,76,0.00,,,0.00,,2013-02-03 17:52:00,
2013-02-03 13:03:00,25.0,18.0,29.84,WNW,282,1.0,3.0,75,0.00,,,0.00,,2013-02-03 18:03:00,
2013-02-03 13:12:00,25.0,18.0,29.84,WNW,282,1.0,3.0,75,0.00,,,0.00,,2013-02-03 18:12:00,
2013-02-03 13:23:00,25.0,18.0,29.83,North,11,1.0,3.0,74,0.00,,,0.00,,2013-02-03 18:23:00,
2013-02-03 13:33:00,25.0,18.0,29.83,North,355,0.0,2.0,74,0.00,,,0.00,,2013-02-03 18:33:00,
2013-02-03 13:42:00,25.0,18.0,29.83,North,355,0.0,2.0,74,0.00,,,0.00,,2013-02-03 18:42:00,
2013-02-03 13:52:00,25.0,18.0,29.82,NNW,333,1.0,3.0,75,0.00,,,0.00,,2013-02-03 18:52:00,
2013-02-03 14:02:00,25.0,19.0,29.81,NE,39,0.0,2.0,76,0.00,,,0.00,,2013-02-03 19:02:00,
2013-02-03 14:11:00,25.0,19.0,29.81,NE,39,0.0,2.0,76,0.00,,,0.00,,2013-02-03 19:11:00,
2013-02-03 14:22:00,24.0,18.0,29.81,NE,34,0.0,1.0,78,0.00,,,0.00,,2013-02-03 19:22:00,
2013-02-03 14:32:00,24.0,18.0,29.80,NNW,333,0.0,1.0,79,0.00,,,0.00,,2013-02-03 19:32:00,
2013-02-03 14:42:00,24.0,18.0,29.80,NNW,333,0.0,1.0,79,0.00,,,0.00,,2013-02-03 19:42:00,
2013-02-03 14:52:00,25.0,20.0,29.80,SW,231,0.0,2.0,80,0.00,,,0.00,,2013-02-03 19:52:00,
2013-02-03 15:01:00,25.0,19.0,29.80,West,271,0.0,3.0,79,0.00,,,0.00,,2013-02-03 20:01:00,
2013-02-03 15:12:00,25.0,19.0,29.80,West,271,0.0,3.0,79,0.00,,,0.00,,2013-02-03 20:12:00,
2013-02-03 15:22:00,25.0,20.0,29.80,West,261,0.0,2.0,80,0.00,,,0.00,,2013-02-03 20:22:00,
2013-02-03 15:33:00,25.0,20.0,29.80,West,262,0.0,2.0,80,0.00,,,0.00,,2013-02-03 20:33:00,
2013-02-03 15:42:00,25.0,20.0,29.80,West,262,0.0,2.0,80,0.00,,,0.00,,2013-02-03 20:42:00,
2013-02-03 15:52:00,25.0,20.0,29.79,West,263,0.0,1.0,81,0.00,,,0.00,,2013-02-03 20:52:00,
2013-02-03 16:03:00,25.0,20.0,29.79,West,263,0.0,0.0,81,0.00,,,0.00,,2013-02-03 21:03:00,
2013-02-03 16:11:00,25.0,20.0,29.79,West,263,0.0,0.0,81,0.00,,,0.00,,2013-02-03 21:11:00,
2013-02-03 16:21:00,25.0,20.0,29.78,North,355,0.0,1.0,80,0.00,,,0.00,,2013-02-03 21:21:00,
2013-02-03 16:32:00,24.0,19.0,29.78,North,350,0.0,2.0,81,0.00,,,0.00,,2013-02-03 21:32:00,
2013-02-03 16:42:00,24.0,19.0,29.78,North,350,0.0,2.0,81,0.00,,,0.00,,2013-02-03 21:42:00,
2013-02-03 16:52:00,24.0,19.0,29.77,North,360,0.0,2.0,81,0.00,,,0.00,,2013-02-03 21:52:00,
2013-02-03 17:01:00,24.0,19.0,29.77,North,350,0.0,2.0,81,0.00,,,0.00,,2013-02-03 22:01:00,
2013-02-03 17:11:00,24.0,19.0,29.77,North,350,0.0,2.0,81,0.00,,,0.00,,2013-02-03 22:11:00,
2013-02-03 17:21:00,24.0,19.0,29.76,NNW,348,0.0,0.0,82,0.00,,,0.00,,2013-02-03 22:21:00,
2013-02-03 17:32:00,24.0,19.0,29.76,NNW,348,0.0,0.0,82,0.00,,,0.00,,2013-02-03 22:32:00,
2013-02-03 17:42:00,24.0,19.0,29.76,NNW,348,0.0,0.0,82,0.00,,,0.00,,2013-02-03 22:42:00,
2013-02-03 17:52:00,24.0,20.0,29.76,NNW,348,0.0,0.0,83,0.00,,,0.00,,2013-02-03 22:52:00,
2013-02-03 18:01:00,24.0,20.0,29.76,NNW,348,0.0,0.0,83,0.00,,,0.00,,2013-02-03 23:01:00,
2013-02-03 18:12:00,24.0,20.0,29.76,NNW,348,0.0,0.0,83,0.00,,,0.00,,2013-02-03 23:12:00,
2013-02-03 18:22:00,23.0,19.0,29.76,NNW,348,0.0,0.0,83,0.00,,,0.00,,2013-02-03 23:22:00,
2013-02-03 18:32:00,23.0,19.0,29.77,NNW,348,0.0,0.0,83,0.00,,,0.00,,2013-02-03 23:32:00,
2013-02-03 18:42:00,23.0,19.0,29.77,NNW,348,0.0,0.0,83,0.00,,,0.00,,2013-02-03 23:42:00,
2013-02-03 18:52:00,23.0,19.0,29.77,NNW,348,0.0,0.0,84,0.00,,,0.00,,2013-02-03 23:52:00,
2013-02-03 19:02:00,23.0,19.0,29.77,NNW,348,0.0,0.0,84,0.00,,,0.00,,2013-02-04 00:02:00,
2013-02-03 19:11:00,23.0,19.0,29.77,NNW,348,0.0,0.0,84,0.00,,,0.00,,2013-02-04 00:11:00,
2013-02-03 19:22:00,23.0,19.0,29.77,NNW,348,0.0,0.0,84,0.00,,,0.00,,2013-02-04 00:22:00,
2013-02-03 19:32:00,23.0,19.0,29.77,NNW,348,0.0,0.0,84,0.00,,,0.00,,2013-02-04 00:32:00,
2013-02-03 19:42:00,23.0,19.0,29.77,NNW,348,0.0,0.0,84,0.00,,,0.00,,2013-02-04 00:42:00,
2013-02-03 19:52:00,23.0,19.0,29.78,NNW,348,0.0,0.0,84,0.00,,,0.00,,2013-02-04 00:52:00,
2013-02-03 20:01:00,23.0,19.0,29.77,NNW,348,0.0,0.0,85,0.00,,,0.00,,2013-02-04 01:01:00,
2013-02-03 20:11:00,23.0,19.0,29.76,NNW,348,0.0,0.0,85,0.00,,,0.00,,2013-02-04 01:11:00,
2013-02-03 20:21:00,23.0,19.0,29.76,NNW,348,0.0,0.0,85,0.00,,,0.00,,2013-02-04 01:21:00,
2013-02-03 20:32:00,23.0,19.0,29.76,NNW,348,0.0,0.0,85,0.00,,,0.00,,2013-02-04 01:32:00,
2013-02-03 20:42:00,23.0,19.0,29.76,NNW,348,0.0,0.0,85,0.00,,,0.00,,2013-02-04 01:42:00,
2013-02-03 20:52:00,23.0,19.0,29.75,NNW,348,0.0,0.0,86,0.00,,,0.00,,2013-02-04 01:52:00,
2013-02-03 21:02:00,23.0,19.0,29.76,NNW,348,0.0,0.0,85,0.00,,,0.00,,2013-02-04 02:02:00,
2013-02-03 21:11:00,23.0,19.0,29.76,NNW,348,0.0,0.0,85,0.00,,,0.00,,2013-02-04 02:11:00,
2013-02-03 21:21:00,23.0,19.0,29.76,NNW,348,0.0,0.0,85,0.00,,,0.00,,2013-02-04 02:21:00,
2013-02-03 21:32:00,23.0,19.0,29.75,NNW,348,0.0,0.0,85,0.00,,,0.00,,2013-02-04 02:32:00,
2013-02-03 21:42:00,23.0,19.0,29.75,NNW,348,0.0,0.0,85,0.00,,,0.00,,2013-02-04 02:42:00,
2013-02-03 21:52:00,23.0,19.0,29.75,NNW,348,0.0,0.0,86,0.00,,,0.00,,2013-02-04 02:52:00,
2013-02-03 22:02:00,23.0,19.0,29.74,NNW,348,0.0,0.0,86,0.00,,,0.00,,2013-02-04 03:02:00,
2013-02-03 22:11:00,23.0,19.0,29.74,NNW,348,0.0,0.0,86,0.00,,,0.00,,2013-02-04 03:11:00,
2013-02-03 22:21:00,23.0,19.0,29.74,NNW,348,0.0,0.0,86,0.00,,,0.00,,2013-02-04 03:21:00,
2013-02-03 22:32:00,23.0,19.0,29.74,NNW,348,0.0,0.0,86,0.00,,,0.00,,2013-02-04 03:32:00,
2013-02-03 22:42:00,23.0,19.0,29.74,NNW,348,0.0,0.0,86,0.00,,,0.00,,2013-02-04 03:42:00,
2013-02-03 22:52:00,23.0,19.0,29.73,NNW,348,0.0,0.0,86,0.00,,,0.00,,2013-02-04 03:52:00,
2013-02-03 23:01:00,23.0,19.0,29.73,NNW,348,0.0,0.0,86,0.00,,,0.00,,2013-02-04 04:01:00,
2013-02-03 23:11:00,23.0,19.0,29.73,NNW,348,0.0,0.0,86,0.00,,,0.00,,2013-02-04 04:11:00,
2013-02-03 23:21:00,23.0,19.0,29.73,NNW,348,0.0,0.0,86,0.00,,,0.00,,2013-02-04 04:21:00,
2013-02-03 23:32:00,23.0,19.0,29.73,WSW,238,0.0,2.0,86,0.00,,,0.00,,2013-02-04 04:32:00,
2013-02-03 23:42:00,23.0,19.0,29.73,WSW,238,0.0,2.0,86,0.00,,,0.00,,2013-02-04 04:42:00,
2013-02-03 23:52:00,22.0,18.0,29.73,WSW,239,0.0,0.0,86,0.00,,,0.00,,2013-02-04 04:52:00,